Theta_e
330 330 330 332 339 336 336 339 339 343 348 347 346 355 357 355 350 352 352 351 349 349 346 345 343 342 343 343 343 343 344 345 345 345 346 346 345 346 348 348 350 351 352 349
334 329 333 338 339 340 336 340 341 344 344 343 352 357 351 347 347 351 350 348 349 350 347 345 345 344 343 344 345 346 347 348 348 348 349 349 350 350 350 350 348 346 346 347
336 330 334 338 339 341 344 340 341 344 344 346 357 349 346 343 343 344 343 340 340 342 345 348 347 348 348 348 349 350 351 352 352 352 353 353 352 348 344 344 345 345 342 340
333 333 335 335 336 338 342 339 342 342 344 350 351 348 346 342 340 340 340 339 340 341 340 340 339 338 339 342 345 347 347 346 345 345 349 347 344 342 342 339 337 336 341 341
334 333 332 338 340 343 344 343 346 343 344 353 351 346 347 340 339 342 341 341 342 342 343 342 342 342 341 341 340 338 339 340 343 346 344 345 339 337 338 340 342 341 340 339
332 332 334 338 337 339 343 343 345 345 349 352 350 346 349 344 340 342 343 342 342 342 343 343 343 342 342 341 334 334 335 336 338 338 338 340 340 340 341 342 341 337 335 335
332 333 331 333 335 336 348 344 344 347 349 352 349 345 346 344 342 342 344 344 343 343 343 343 341 343 341 341 333 335 337 337 335 334 335 337 339 340 339 337 336 335 335 337
334 337 334 337 340 342 340 340 343 348 350 351 347 346 348 345 342 338 341 343 344 344 343 341 337 338 339 339 334 335 335 336 335 334 333 334 334 334 335 335 335 335 334 335
342 340 337 336 338 337 340 343 343 349 349 350 347 347 342 337 335 336 339 343 343 342 338 338 337 337 336 333 334 335 336 337 337 335 335 335 335 335 336 337 338 336 336 336
341 339 339 337 339 340 341 341 341 343 346 347 345 337 336 337 337 338 340 342 341 337 335 335 338 339 339 335 337 337 332 333 333 334 333 334 334 336 338 338 338 338 336 333
339 337 337 336 339 340 339 337 335 337 337 338 343 337 336 337 339 338 340 341 338 340 341 342 342 340 339 339 335 333 330 330 332 333 332 333 336 336 336 336 337 334 336 335
339 340 340 339 338 338 339 338 337 336 336 335 335 337 336 336 337 338 340 339 339 341 342 342 342 342 342 341 335 336 334 331 334 331 333 334 335 333 334 336 335 333 333 335
335 332 332 332 332 334 337 336 334 333 333 333 333 335 336 337 339 339 339 340 337 336 336 343 342 343 343 338 338 335 335 334 335 332 331 331 332 335 335 337 337 335 333 332
331 331 332 331 333 332 334 334 333 334 333 335 336 339 339 339 338 339 336 334 338 339 339 341 343 343 341 341 341 340 340 334 336 336 336 339 338 333 334 333 333 332 331 334
330 330 331 330 329 332 333 333 333 334 334 336 338 338 337 337 338 336 336 336 340 339 338 337 337 338 337 337 336 336 339 336 337 338 339 339 338 338 335 335 334 333 333 333
330 332 332 330 330 332 333 332 335 335 334 337 338 337 337 338 337 337 337 338 341 342 340 339 338 337 337 337 334 335 338 338 339 339 340 340 339 338 337 336 335 331 332 332
329 334 332 332 332 331 333 333 334 334 334 337 337 337 338 338 338 338 337 338 340 337 333 336 339 339 336 336 338 338 338 339 339 340 338 338 337 336 335 334 336 332 332 332
330 330 330 333 333 331 332 334 334 334 334 334 336 337 338 338 338 337 335 333 331 327 334 340 340 336 335 336 338 338 338 338 337 336 337 336 331 330 328 331 335 336 333 332
333 333 332 331 331 331 331 332 333 334 332 333 335 337 337 337 338 336 333 330 328 328 335 341 337 336 336 335 335 334 335 335 335 336 336 332 335 336 335 333 332 334 333 332
333 333 334 334 333 332 331 331 331 332 332 332 334 336 337 338 338 335 331 328 326 327 338 337 336 334 329 324 325 327 328 326 333 337 333 336 335 335 336 337 337 338 337 336
332 332 332 331 333 335 332 331 332 331 331 330 333 336 337 338 338 335 330 328 323 329 337 334 332 329 325 324 325 326 325 333 336 337 336 336 337 335 335 335 335 335 336 337
330 332 333 332 331 330 333 333 332 332 331 331 331 334 337 338 337 334 330 327 321 330 336 332 331 327 325 324 328 326 327 336 335 334 332 331 331 331 333 335 335 333 333 334
321 327 332 334 333 330 329 330 333 332 332 332 332 332 336 338 336 334 330 325 322 334 335 333 331 326 324 327 329 331 331 332 332 332 332 333 332 331 330 329 330 329 327 328
317 320 324 330 334 335 334 331 332 333 333 332 333 333 337 337 336 333 329 322 324 332 335 333 329 325 324 328 327 327 328 328 328 327 327 328 328 329 331 331 331 332 331 329
312 317 320 324 329 332 333 334 333 333 333 332 333 335 337 337 335 333 328 324 325 329 330 333 328 326 325 326 325 325 326 326 325 326 325 326 325 323 323 324 324 324 332 331
312 313 315 319 323 326 329 332 334 333 332 332 333 335 336 336 335 331 327 325 326 329 329 331 327 327 327 327 326 326 326 325 324 324 325 325 325 324 324 324 324 325 325 330
313 312 313 316 320 323 327 329 333 333 332 332 333 334 335 336 334 330 325 324 324 327 329 330 327 327 326 325 326 325 323 321 321 321 323 323 323 323 324 324 324 323 324 325
Wind_Speed
4 3 1 4 3 7 4 3 3 6 11 10 8 8 10 8 7 9 13 15 13 9 5 1 3 7 12 15 17 17 18 20 20 20 19 23 25 25 22 19 17 13 15 18
1 7 1 2 4 2 2 3 2 11 10 6 8 10 9 9 9 8 10 13 14 13 9 5 3 1 5 8 10 10 9 11 14 16 16 16 16 16 17 19 18 14 12 14
1 8 3 4 5 4 1 2 1 4 7 15 11 12 7 7 10 12 13 14 16 16 15 12 9 9 6 3 3 4 6 8 10 9 10 13 13 14 21 19 18 19 19 22
1 4 3 4 3 5 1 3 4 8 13 13 16 12 10 7 11 12 13 14 14 14 14 12 12 11 11 7 8 10 6 3 5 7 9 11 16 20 21 18 19 20 17 22
1 2 5 2 3 2 3 4 4 9 13 16 16 14 8 9 11 10 11 11 12 11 11 10 10 9 9 10 8 5 2 3 6 11 14 15 16 13 13 14 17 17 18 19
2 2 4 2 2 4 2 1 7 10 17 19 16 6 5 12 11 11 10 8 7 7 8 8 7 5 6 9 11 6 3 1 1 2 5 6 10 15 16 15 14 16 16 18
3 3 3 2 5 3 4 2 3 11 17 18 7 4 14 15 12 11 7 5 3 4 6 8 8 6 6 7 7 5 3 3 4 5 5 6 7 9 10 12 13 15 16 16
3 2 4 2 3 3 3 2 4 9 15 14 7 9 16 13 10 8 4 1 3 6 7 6 5 5 6 7 4 3 5 6 7 7 7 8 10 12 13 14 16 18 19 19
3 1 3 5 5 6 0 3 5 10 11 13 10 11 11 10 7 6 3 3 7 5 6 4 2 2 3 5 6 7 8 7 7 6 6 8 12 14 15 14 14 14 16 18
3 3 3 3 4 7 8 10 9 8 10 12 9 9 8 10 11 9 7 6 4 4 5 4 3 2 2 2 3 4 5 6 7 8 9 11 14 12 10 12 13 10 11 16
2 4 4 5 7 7 8 8 5 4 6 6 9 10 10 10 12 11 10 7 4 2 3 4 5 5 4 4 4 2 3 5 8 9 14 13 12 12 13 11 7 6 10 13
3 6 3 3 10 9 10 11 9 7 8 8 10 12 11 10 11 10 8 6 5 6 8 9 9 8 6 5 5 4 4 5 6 10 9 10 13 11 7 5 4 6 9 12
2 7 6 4 7 10 14 13 11 9 6 8 10 13 11 10 10 9 5 4 6 6 7 10 8 6 5 5 5 6 6 6 6 7 8 13 8 7 5 5 4 6 5 9
9 4 4 3 6 11 17 16 13 8 4 4 8 11 13 11 10 6 5 5 3 3 4 5 3 3 5 6 7 8 9 8 7 8 10 14 13 8 7 9 6 3 7 6
14 14 16 17 22 13 15 17 16 12 8 9 12 14 14 12 11 8 6 5 5 4 3 5 6 6 6 6 7 10 10 8 7 10 11 14 12 11 8 10 9 7 8 4
6 7 10 16 16 13 17 21 18 16 14 15 17 16 15 14 13 9 7 8 8 8 8 9 7 5 4 4 5 4 1 4 7 9 11 13 12 11 11 7 3 4 1 3
6 5 4 6 12 13 19 22 23 21 17 19 20 20 19 18 16 12 10 10 10 10 10 7 6 3 4 4 2 2 3 4 6 9 10 11 12 12 10 7 3 4 2 0
13 15 14 12 7 5 12 22 24 24 23 18 21 24 23 23 20 14 12 11 10 8 8 8 7 5 2 2 3 3 4 6 7 8 10 10 8 10 6 2 1 2 7 6
7 12 16 19 18 16 14 12 19 24 23 23 24 27 26 25 20 16 14 13 11 10 9 9 7 5 3 3 3 4 4 6 7 8 10 4 4 7 7 4 4 4 0 3
3 1 4 9 16 21 22 18 16 20 21 23 27 28 30 26 22 19 16 14 12 10 11 10 9 6 5 7 7 7 7 6 6 7 2 4 4 5 6 7 6 3 2 1
3 3 3 1 1 7 18 22 20 21 19 19 26 30 30 28 24 20 18 16 13 14 13 12 10 6 6 7 6 6 5 3 3 4 4 5 5 6 3 4 4 5 5 3
4 4 5 8 9 5 6 16 22 21 22 21 24 30 33 29 25 22 19 16 12 16 16 14 11 7 7 5 5 3 1 4 3 2 4 5 5 5 4 4 5 5 5 5
9 7 7 8 11 14 14 13 18 22 23 21 23 28 32 31 27 24 21 17 17 18 18 15 12 9 7 4 2 1 2 1 2 3 3 4 5 5 3 3 4 6 8 7
10 11 11 10 11 13 17 18 18 22 24 23 22 25 31 33 30 24 21 15 18 19 19 18 14 10 8 7 5 4 5 6 6 7 7 6 6 5 5 4 5 4 5 7
12 12 12 12 13 14 15 16 19 23 26 27 25 27 32 35 29 24 20 19 20 20 20 20 16 12 10 10 9 7 7 8 9 11 11 11 11 9 8 9 10 9 8 6
13 15 16 16 17 17 17 15 13 17 24 28 30 31 36 35 30 25 20 21 22 23 20 24 20 15 14 14 14 14 14 15 15 15 14 16 16 13 11 10 10 10 10 10
16 16 18 19 17 18 17 17 14 13 19 25 31 32 35 36 33 29 27 25 24 26 27 27 22 18 15 15 16 18 20 19 19 19 19 16 14 14 14 16 18 16 14 12
Wind_Direction
75 355 229 296 289 220 248 295 244 125 145 153 119 110 92 82 71 54 46 47 50 57 57 17 263 253 252 260 266 273 272 264 257 255 251 243 248 255 259 259 261 269 275 268
84 8 49 127 30 104 209 202 108 138 102 118 115 108 107 104 103 88 71 60 58 59 59 35 32 254 240 243 250 255 255 268 269 262 257 259 254 253 260 254 248 259 275 286
236 344 317 198 352 323 149 187 355 148 128 156 140 128 123 119 107 102 89 80 76 77 74 69 57 41 19 344 316 286 244 243 255 257 256 246 233 242 276 266 258 255 284 299
337 319 254 63 316 261 343 101 126 104 147 152 136 127 128 124 105 98 89 88 88 79 75 72 63 55 49 19 312 302 285 261 266 266 243 252 266 269 265 264 274 278 287 293
267 259 318 186 39 358 9 119 130 133 144 137 132 124 121 138 127 116 99 92 90 78 65 57 50 40 28 18 15 22 351 286 265 256 265 269 269 274 275 289 297 288 286 279
150 223 230 51 6 326 258 180 157 158 155 153 151 160 156 164 149 137 121 109 82 55 36 20 16 20 11 358 353 357 1 348 276 273 258 260 262 266 273 277 270 274 284 288
160 225 266 256 299 304 203 57 162 167 163 160 162 92 154 159 150 139 143 132 100 31 11 353 348 340 346 351 0 14 41 12 343 337 324 304 292 289 285 284 277 277 277 280
141 204 237 18 276 247 27 31 170 172 167 161 128 140 153 154 148 134 141 59 360 345 340 331 333 343 344 350 4 34 10 349 331 315 313 317 315 311 309 307 304 298 293 291
231 97 323 291 272 310 80 122 145 164 172 168 145 154 160 157 153 166 195 306 325 340 330 321 350 2 347 348 343 330 334 341 346 346 336 329 321 311 311 316 311 299 292 293
202 170 252 315 127 113 107 107 111 139 168 177 173 169 177 190 200 216 239 264 286 338 -0 14 360 331 316 317 330 339 6 4 347 340 338 333 333 331 319 317 310 301 312 309
235 241 252 222 191 173 154 135 119 145 160 175 193 200 210 214 213 221 232 236 245 283 320 321 324 328 310 288 291 308 352 350 347 340 345 348 350 334 314 317 316 339 349 357
211 197 184 208 207 212 205 193 187 203 212 227 232 229 231 219 209 215 205 224 261 284 296 294 292 297 298 283 272 281 301 314 337 357 14 10 356 357 15 6 12 16 349 343
257 181 198 253 250 234 226 213 204 211 243 259 247 224 205 187 181 185 199 249 282 297 316 309 287 284 289 290 277 283 279 280 310 346 344 333 350 346 338 338 345 347 350 335
194 180 241 286 321 273 226 212 208 208 247 249 189 181 176 183 189 189 230 266 269 317 351 1 342 295 290 295 289 280 275 270 287 300 327 336 338 320 311 300 298 255 286 303
238 252 257 278 282 275 222 204 204 205 198 197 190 189 196 199 197 208 238 253 247 263 308 332 322 317 307 303 303 287 274 265 284 306 312 324 328 327 322 319 268 281 287 235
271 268 255 248 242 245 213 208 206 207 202 203 202 205 210 208 212 225 245 239 241 261 273 291 289 309 328 318 343 8 276 268 292 307 316 327 331 326 327 328 257 224 4 250
296 256 285 249 223 228 217 214 214 213 211 211 214 216 214 215 221 232 245 249 255 266 268 254 257 281 314 308 295 295 290 295 301 312 323 331 328 323 319 316 298 226 224 0
256 261 257 257 260 260 234 228 224 223 219 226 224 222 220 220 228 236 247 257 263 255 234 226 243 265 285 294 286 279 285 294 301 311 321 336 345 357 350 288 29 252 258 265
246 245 245 244 248 255 258 255 238 233 230 233 228 227 229 227 225 233 245 254 250 239 224 220 226 241 263 281 287 287 287 300 305 311 320 331 7 20 18 359 332 336 240 175
60 233 226 236 242 243 243 246 233 231 238 241 231 229 226 221 222 231 244 252 253 235 214 209 214 221 268 294 293 288 289 293 297 323 31 20 14 6 21 29 32 29 41 117
6 14 8 356 239 256 235 228 233 237 242 241 234 231 230 225 223 232 238 248 253 224 211 210 207 229 278 295 311 304 285 243 274 305 310 341 356 15 13 13 17 28 28 329
349 320 325 327 320 303 283 238 230 235 240 246 240 231 227 220 223 235 242 248 239 216 211 208 214 242 278 286 310 315 260 225 256 295 337 360 18 15 350 335 340 343 326 310
0 354 327 313 307 299 280 265 246 234 239 245 238 230 223 220 224 231 242 244 224 211 210 212 220 251 259 250 251 301 324 300 272 274 299 307 328 357 32 54 37 21 12 344
335 345 342 328 310 304 289 269 254 236 237 241 240 231 220 218 224 231 239 235 221 214 214 215 224 242 243 227 244 272 286 285 290 298 296 284 287 292 281 297 300 306 340 356
326 315 315 317 309 302 308 293 261 236 229 236 234 230 224 224 227 233 236 230 212 209 214 213 221 226 227 236 254 263 277 286 280 281 280 271 276 284 294 299 293 293 279 290
317 312 304 302 305 307 304 312 280 246 233 230 232 231 227 224 225 230 232 226 218 216 223 217 220 229 241 251 256 262 276 285 286 286 279 269 265 264 274 290 295 290 279 268
313 311 308 299 300 302 292 299 291 261 246 236 234 236 232 225 223 225 225 224 226 221 220 215 222 233 240 249 257 268 276 281 282 278 272 270 266 266 272 284 290 284 272 270